{"data":{"norad_id":63253,"intl_designator":"2025-052AV","name":"ICEYE-X48","alt_names":[],"object_type":"PAYLOAD","status":"ACTIVE","operator":null,"country":"US","launch_date":"2025-03-15","launch_site_code":"AFWTR","launch_vehicle":null,"mission":null,"orbit_class":"UNKNOWN","rcs_meters":null,"size_class":null,"mass_kg":null,"dimensions":null,"purposes":[],"wikipedia_slug":null,"has_3d_model":false,"image_url":null,"decayed_at":null,"tle_current":{"epoch":"2026-09-22T16:47:25.096992Z","epoch_age_seconds":118579,"freshness":"FRESH","line1":"1 63253U 25052AV  26265.69959603  .00001783  00000+0  15383-3 0  9992","line2":"2 63253  97.6714 156.3530 0001004 187.4209 172.6999 14.98533607 83273","mean_motion":14.98533607,"eccentricity":0.0001004,"inclination_deg":97.6714,"raan_deg":156.353,"arg_perigee_deg":187.4209,"mean_anomaly_deg":172.6999,"bstar":0.00015383,"rev_number":8327,"period_min":96.093940988272,"perigee_km":570.72858822701,"apogee_km":572.12406054254,"semimajor_km":6949.5633243848,"source":"CELESTRAK","updated_at":"2026-09-23T09:00:21.938464Z"}}}